User: anonymous   Login
Location: Unspecified
(0.0000°N, 0.0000°E)
Time: 02:11:14
(UTC+00:00)
Language:

METEOR-M - Orbit

View from above orbital plane
View from above orbital plane
View from above satellite
View from above satellite

Ground track
Ground track

The orbit data is extracted from the following two-line orbital elements,

1 35865U 09049A   16178.51311661 -.00000005  00000-0  16733-4 0  9996
2 35865  98.4550 209.4440 0003639 100.9042 259.2546 14.22071281351550
Epoch (UTC): 26 June 2016 12:18:53
Eccentricity: 0.0003639
inclination: 98.4550°
perigee height: 816 km
apogee height: 821 km
right ascension of ascending node: 209.4440°
argument of perigee: 100.9042°
revolutions per day: 14.22071281
mean anomaly at epoch: 259.2546°
orbit number at epoch: 35155

The dashed part of the orbit path shows where the satellite is in the earth's shadow,  

DLR